Filename:  SIQ95HR.WK1,,,
"Source:  Department of Public Works, City and County of Honolulu",,,
Data is hourly. Covers 1/1/95-3/31/95,,,
Location:,Sand Island,,

Unit of measurement for influent and effluent flows is million-gallons/day (mgd),,,

DATE:,TIME:,Influent flow (mgd),Effluent flow (mgd)
01/01/95,00:00:00,61.601,69.459
01/01/95,01:00:00,60.49,67.327
01/01/95,02:00:00,60.719,68.16
01/01/95,03:00:00,57.614,65.93
01/01/95,04:00:00,50.131,57.84
01/01/95,05:00:00,46.797,50.965
01/01/95,06:00:00,54.64,59.703
01/01/95,07:00:00,22.353,60.24
01/01/95,08:00:00,50.359,65.887
01/01/95,09:00:00,69.477,76.221
01/01/95,10:00:00,78.954,86.527
01/01/95,11:00:00,80.131,88.221
01/01/95,12:00:00,78.072,88.997
01/01/95,13:00:00,76.699,85.115
01/01/95,14:00:00,75.49,82.927
01/01/95,15:00:00,73.823,79.92
01/01/95,16:00:00,74.379,81.402
01/01/95,17:00:00,76.307,82.885
01/01/95,18:00:00,77.19,83.69
01/01/95,19:00:00,76.699,83.21
01/01/95,20:00:00,74.281,80.697
01/01/95,21:00:00,71.275,77.887
01/01/95,22:00:00,69.379,76.136
01/01/95,23:00:00,67.647,74.117
01/02/95,00:00:00,63.039,71.478
01/02/95,01:00:00,54.379,62.188
01/02/95,02:00:00,49.673,53.209
01/02/95,03:00:00,46.47,53.393
01/02/95,04:00:00,46.667,50.513
01/02/95,05:00:00,47.222,52.969
01/02/95,06:00:00,50.752,54.734
01/02/95,07:00:00,50.98,57.826
01/02/95,08:00:00,67.385,72.367
01/02/95,09:00:00,78.595,84.65
01/02/95,10:00:00,85.359,93.007
01/02/95,11:00:00,86.144,95.675
01/02/95,12:00:00,83.072,92.597
01/02/95,13:00:00,77.549,88.023
01/02/95,14:00:00,75.621,84.65
01/02/95,15:00:00,73.137,81.883
01/02/95,16:00:00,73.921,81.36
01/02/95,17:00:00,75.261,83.365
01/02/95,18:00:00,78.824,85.793
01/02/95,19:00:00,79.314,88.136
01/02/95,20:00:00,77.843,88.094
01/02/95,21:00:00,75.294,85.101
01/02/95,22:00:00,72.32,80.979
01/02/95,23:00:00,69.477,78.381
01/03/95,00:00:00,62.908,72.409
01/03/95,01:00:00,55,63.106
01/03/95,02:00:00,47.582,53.407
01/03/95,03:00:00,39.869,48.099
01/03/95,04:00:00,41.928,46.97
01/03/95,05:00:00,47.876,56.88
01/03/95,06:00:00,53.072,57.727
01/03/95,07:00:00,68.431,73.2
01/03/95,08:00:00,77.418,85.977
01/03/95,09:00:00,80.098,89.958
01/03/95,10:00:00,87.941,96.198
01/03/95,11:00:00,80.882,91.411
01/03/95,12:00:00,77.843,87.36
01/03/95,13:00:00,72.647,79.567
01/03/95,14:00:00,73.66,81.318
01/03/95,15:00:00,72.026,80.075
01/03/95,16:00:00,72.549,80.329
01/03/95,17:00:00,74.215,81.925
01/03/95,18:00:00,78.235,85.242
01/03/95,19:00:00,81.569,89.492
01/03/95,20:00:00,81.373,90.593
01/03/95,21:00:00,78.824,87.402
01/03/95,22:00:00,75.882,84.268
01/03/95,23:00:00,70.981,79.92
01/04/95,00:00:00,63.104,73.172
01/04/95,01:00:00,52.026,62.527
01/04/95,02:00:00,44.477,53.887
01/04/95,03:00:00,41.438,50.174
01/04/95,04:00:00,40.621,46.913
01/04/95,05:00:00,41.013,47.52
01/04/95,06:00:00,52.124,58.038
01/04/95,07:00:00,68.268,76.108
01/04/95,08:00:00,82.124,87.332
01/04/95,09:00:00,85.751,93.981
01/04/95,10:00:00,84.019,89.746
01/04/95,11:00:00,79.347,88.461
01/04/95,12:00:00,74.346,85.355
01/04/95,13:00:00,71.863,82.052
01/04/95,14:00:00,69.706,77.746
01/04/95,15:00:00,66.503,76.56
01/04/95,16:00:00,70.85,80.146
01/04/95,17:00:00,72.712,83.534
01/04/95,18:00:00,74.869,85.158
01/04/95,19:00:00,79.673,89.647
01/04/95,20:00:00,79.641,90.536
01/04/95,21:00:00,77.353,88.969
01/04/95,22:00:00,73.203,84.339
01/04/95,23:00:00,70.98,80.259
01/05/95,00:00:00,63.66,73.468
01/05/95,01:00:00,51.079,60.296
01/05/95,02:00:00,42.418,48.692
01/05/95,03:00:00,38.039,46.094
01/05/95,04:00:00,42.549,48.692
01/05/95,05:00:00,40.882,48.056
01/05/95,06:00:00,48.399,55.962
01/05/95,07:00:00,63.431,71.76
01/05/95,08:00:00,82.124,89.52
01/05/95,09:00:00,83.954,94.292
01/05/95,10:00:00,82.908,93.078
01/05/95,11:00:00,79.314,89.972
01/05/95,12:00:00,75.98,85.835
01/05/95,13:00:00,73.268,82.348
01/05/95,14:00:00,69.935,78.946
01/05/95,15:00:00,68.824,78.889
01/05/95,16:00:00,70.033,78.494
01/05/95,17:00:00,72.124,82.08
01/05/95,18:00:00,76.046,83.351
01/05/95,19:00:00,80.327,89.209
01/05/95,20:00:00,81.177,91.468
01/05/95,21:00:00,78.856,88.828
01/05/95,22:00:00,74.935,84.579
01/05/95,23:00:00,71.601,81.078
01/06/95,00:00:00,63.17,72.791
01/06/95,01:00:00,51.797,61.567
01/06/95,02:00:00,43.987,53.407
01/06/95,03:00:00,36.667,42.424
01/06/95,04:00:00,38.399,44.88
01/06/95,05:00:00,43.464,50.061
01/06/95,06:00:00,49.902,55.934
01/06/95,07:00:00,62.386,70.179
01/06/95,08:00:00,77.418,86.513
01/06/95,09:00:00,83.562,91.722
01/06/95,10:00:00,82.909,91.637
01/06/95,11:00:00,79.673,90.565
01/06/95,12:00:00,75.457,85.017
01/06/95,13:00:00,72.059,81.275
01/06/95,14:00:00,70.523,79.736
01/06/95,15:00:00,67.418,77.492
01/06/95,16:00:00,67.908,75.685
01/06/95,17:00:00,70.621,78.579
01/06/95,18:00:00,74.706,84.678
01/06/95,19:00:00,79.837,88.165
01/06/95,20:00:00,72.778,81.388
01/06/95,21:00:00,74.02,82.842
01/06/95,22:00:00,68.17,76.263
01/06/95,23:00:00,66.732,75.092
01/07/95,00:00:00,65.196,72.198
01/07/95,01:00:00,66.863,77.619
01/07/95,02:00:00,49.314,57.671
01/07/95,03:00:00,43.497,51.162
01/07/95,04:00:00,35.981,43.496
01/07/95,05:00:00,36.83,43.002
01/07/95,06:00:00,44.183,49.497
01/07/95,07:00:00,53.399,59.802
01/07/95,08:00:00,55.229,71.181
01/07/95,09:00:00,86.568,86.047
01/07/95,10:00:00,87.745,96.876
01/07/95,11:00:00,84.51,96.353
01/07/95,12:00:00,80.686,91.849
01/07/95,13:00:00,76.503,86.513
01/07/95,14:00:00,74.052,83.266
01/07/95,15:00:00,71.373,81.883
01/07/95,16:00:00,69.477,79.892
01/07/95,17:00:00,72.451,81.205
01/07/95,18:00:00,74.706,83.831
01/07/95,19:00:00,77.647,86.908
01/07/95,20:00:00,75.294,86.118
01/07/95,21:00:00,74.02,83.619
01/07/95,22:00:00,70.163,80.485
01/07/95,23:00:00,68.66,78.508
01/08/95,00:00:00,63.464,73.228
01/08/95,01:00:00,55.85,65.492
01/08/95,02:00:00,48.203,56.682
01/08/95,03:00:00,40.458,46.899
01/08/95,04:00:00,39.477,46.122
01/08/95,05:00:00,38.399,44.499
01/08/95,06:00:00,44.412,49.68
01/08/95,07:00:00,30.948,55.948
01/08/95,08:00:00,58.954,67.073
01/08/95,09:00:00,73.725,82.235
01/08/95,10:00:00,79.837,90.084
01/08/95,11:00:00,78.693,92.075
01/08/95,12:00:00,79.935,89.435
01/08/95,13:00:00,75.719,85.807
01/08/95,14:00:00,75.523,83.718
01/08/95,15:00:00,73.17,81.53
01/08/95,16:00:00,69.412,79.864
01/08/95,17:00:00,72.288,79.031
01/08/95,18:00:00,75.85,82.433
01/08/95,19:00:00,78.039,86.16
01/08/95,20:00:00,78.235,87.713
01/08/95,21:00:00,77.811,87.91
01/08/95,22:00:00,75.392,84.621
01/08/95,23:00:00,71.601,80.428
01/09/95,00:00:00,65.653,74.612
01/09/95,01:00:00,55.98,63.727
01/09/95,02:00:00,47.647,54.31
01/09/95,03:00:00,43.268,47.972
01/09/95,04:00:00,42.974,47.322
01/09/95,05:00:00,42.353,46.842
01/09/95,06:00:00,46.275,51.318
01/09/95,07:00:00,64.869,70.405
01/09/95,08:00:00,81.307,87.685
01/09/95,09:00:00,84.183,91.92
01/09/95,10:00:00,78.987,84.664
01/09/95,11:00:00,78.039,84.861
01/09/95,12:00:00,75.719,82.772
01/09/95,13:00:00,76.144,82.207
01/09/95,14:00:00,74.15,81.925
01/09/95,15:00:00,73.301,80.4
01/09/95,16:00:00,71.373,80.4
01/09/95,17:00:00,74.085,81.586
01/09/95,18:00:00,75.588,84
01/09/95,19:00:00,77.68,85.581
01/09/95,20:00:00,78.824,87.699
01/09/95,21:00:00,77.876,87.939
01/09/95,22:00:00,74.869,84.635
01/09/95,23:00:00,70.784,79.991
01/10/95,00:00:00,66.307,75.741
01/10/95,01:00:00,58.039,65.746
01/10/95,02:00:00,48.072,54.847
01/10/95,03:00:00,45.523,51.36
01/10/95,04:00:00,43.007,47.703
01/10/95,05:00:00,43.53,47.717
01/10/95,06:00:00,50.065,54.72
01/10/95,07:00:00,67.516,72.085
01/10/95,08:00:00,80,85.285
01/10/95,09:00:00,83.105,90.169
01/10/95,10:00:00,81.798,88.094
01/10/95,11:00:00,79.347,86.584
01/10/95,12:00:00,75.653,83.308
01/10/95,13:00:00,73.791,80.753
01/10/95,14:00:00,72.32,78.325
01/10/95,15:00:00,71.177,76.673
01/10/95,16:00:00,70.686,76.941
01/10/95,17:00:00,71.928,77.915
01/10/95,18:00:00,75.098,80.88
01/10/95,19:00:00,78.791,84.395
01/10/95,20:00:00,80.588,88.066
01/10/95,21:00:00,77.941,86.485
01/10/95,22:00:00,75.359,82.927
01/10/95,23:00:00,72.353,79.666
01/11/95,00:00:00,66.405,75.275
01/11/95,01:00:00,58.039,66.099
01/11/95,02:00:00,50.621,57.233
01/11/95,03:00:00,44.706,50.795
01/11/95,04:00:00,44.477,49.835
01/11/95,05:00:00,42.68,47.859
01/11/95,06:00:00,51.405,54.325
01/11/95,07:00:00,69.64,73.298
01/11/95,08:00:00,82.549,87.84
01/11/95,09:00:00,83.105,91.411
01/11/95,10:00:00,81.438,89.125
01/11/95,11:00:00,78.039,85.384
01/11/95,12:00:00,75.425,82.984
01/11/95,13:00:00,73.431,80.711
01/11/95,14:00:00,72.582,79.511
01/11/95,15:00:00,70.621,78.169
01/11/95,16:00:00,72.386,79.186
01/11/95,17:00:00,72.614,79.299
01/11/95,18:00:00,76.438,83.026
01/11/95,19:00:00,78.726,86.132
01/11/95,20:00:00,78.726,86.358
01/11/95,21:00:00,76.569,84.071
01/11/95,22:00:00,73.921,79.44
01/11/95,23:00:00,71.307,82.475
01/12/95,00:00:00,68.203,74.513
01/12/95,01:00:00,56.438,63.6
01/12/95,02:00:00,54.085,60.381
01/12/95,03:00:00,50.36,55.031
01/12/95,04:00:00,45.327,50.4
01/12/95,05:00:00,43.431,47.365
01/12/95,06:00:00,53.203,58.108
01/12/95,07:00:00,68.105,71.209
01/12/95,08:00:00,81.176,87.233
01/12/95,09:00:00,82.549,89.844
01/12/95,10:00:00,81.275,90.565
01/12/95,11:00:00,77.843,85.878
01/12/95,12:00:00,75.392,83.224
01/12/95,13:00:00,73.824,80.696
01/12/95,14:00:00,73.105,79.666
01/12/95,15:00:00,72.222,78.776
01/12/95,16:00:00,72.418,80.428
01/12/95,17:00:00,73.235,80.273
01/12/95,18:00:00,73.366,79.468
01/12/95,19:00:00,79.543,84.904
01/12/95,20:00:00,78.007,84.847
01/12/95,21:00:00,77.451,83.873
01/12/95,22:00:00,74.183,81.388
01/12/95,23:00:00,71.144,76.955
01/13/95,00:00:00,64.542,72.734
01/13/95,01:00:00,57.418,64.08
01/13/95,02:00:00,51.798,56.739
01/13/95,03:00:00,45.229,49.877
01/13/95,04:00:00,46.078,49.666
01/13/95,05:00:00,46.601,50.541
01/13/95,06:00:00,50.915,54.212
01/13/95,07:00:00,65.686,70.419
01/13/95,08:00:00,79.379,81.275
01/13/95,09:00:00,84.314,91.468
01/13/95,10:00:00,82.059,90.183
01/13/95,11:00:00,77.909,87.049
01/13/95,12:00:00,74.804,81.261
01/13/95,13:00:00,75.229,83.125
01/13/95,14:00:00,73.399,80.019
01/13/95,15:00:00,71.013,77.816
01/13/95,16:00:00,68.203,78.155
01/13/95,17:00:00,71.634,79.51
01/13/95,18:00:00,74.15,81.092
01/13/95,19:00:00,77.288,82.885
01/13/95,20:00:00,76.34,84
01/13/95,21:00:00,73.301,81.12
01/13/95,22:00:00,71.144,78.409
01/13/95,23:00:00,69.118,75.162
01/14/95,00:00:00,66.144,73.412
01/14/95,01:00:00,59.02,65.633
01/14/95,02:00:00,52.843,59.478
01/14/95,03:00:00,45.948,50.315
01/14/95,04:00:00,46.144,50.583
01/14/95,05:00:00,46.144,49.765
01/14/95,06:00:00,47.843,52.15
01/14/95,07:00:00,54.477,62.075
01/14/95,08:00:00,57.516,68.936
01/14/95,09:00:00,80.457,84.522
01/14/95,10:00:00,85.294,91.355
01/14/95,11:00:00,85.131,91.553
01/14/95,12:00:00,82.092,89.816
01/14/95,13:00:00,78.791,87.558
01/14/95,14:00:00,74.902,82.363
01/14/95,15:00:00,72.778,82.08
01/14/95,16:00:00,71.634,80.527
01/14/95,17:00:00,74.118,81.671
01/14/95,18:00:00,77.19,83.859
01/14/95,19:00:00,78.889,85.059
01/14/95,20:00:00,78.431,85.722
01/14/95,21:00:00,78.137,85.638
01/14/95,22:00:00,73.595,81.699
01/14/95,23:00:00,68.464,76.193
01/15/95,00:00:00,65.294,73.059
01/15/95,01:00:00,60.294,68.753
01/15/95,02:00:00,54.15,60.819
01/15/95,03:00:00,50.065,52.899
01/15/95,04:00:00,46.307,51.629
01/15/95,05:00:00,47.614,51.995
01/15/95,06:00:00,47.974,52.588
01/15/95,07:00:00,54.314,58.151
01/15/95,08:00:00,66.405,70.094
01/15/95,09:00:00,77.288,82.475
01/15/95,10:00:00,83.791,90.55
01/15/95,11:00:00,83.366,91.157
01/15/95,12:00:00,79.673,89.647
01/15/95,13:00:00,77.386,85.525
01/15/95,14:00:00,75.458,85.737
01/15/95,15:00:00,76.078,83.817
01/15/95,16:00:00,75.065,83.534
01/15/95,17:00:00,73.987,81.854
01/15/95,18:00:00,75.653,82.419
01/15/95,19:00:00,77.32,85.073
01/15/95,20:00:00,75.85,84.41
01/15/95,21:00:00,73.203,82.476
01/15/95,22:00:00,70.196,77.915
01/15/95,23:00:00,66.274,74.837
01/16/95,00:00:00,62.484,69.995
01/16/95,01:00:00,56.177,62.908
01/16/95,02:00:00,48.758,55.497
01/16/95,03:00:00,49.673,54.579
01/16/95,04:00:00,47.516,51.911
01/16/95,05:00:00,44.15,50.259
01/16/95,06:00:00,52.059,55.708
01/16/95,07:00:00,60.359,66.452
01/16/95,08:00:00,71.634,76.334
01/16/95,09:00:00,83.529,89.04
01/16/95,10:00:00,87.615,94.786
01/16/95,11:00:00,89.314,98.033
01/16/95,12:00:00,83.203,94.588
01/16/95,13:00:00,80.719,90.494
01/16/95,14:00:00,77.418,87.078
01/16/95,15:00:00,31.895,83.605
01/16/95,16:00:00,73.725,82.744
01/16/95,17:00:00,75.817,83.817
01/16/95,18:00:00,77.745,84.819
01/16/95,19:00:00,78.137,88.489
01/16/95,20:00:00,79.51,88.009
01/16/95,21:00:00,77.68,85.807
01/16/95,22:00:00,74.346,82.405
01/16/95,23:00:00,68.66,76.899
01/17/95,00:00:00,63.137,70.419
01/17/95,01:00:00,54.673,61.454
01/17/95,02:00:00,47.189,53.661
01/17/95,03:00:00,44.575,49.284
01/17/95,04:00:00,45.98,51.176
01/17/95,05:00:00,46.503,51.12
01/17/95,06:00:00,51.013,55.85
01/17/95,07:00:00,68.791,73.609
01/17/95,08:00:00,80.556,87.402
01/17/95,09:00:00,83.399,93.289
01/17/95,10:00:00,81.863,90.31
01/17/95,11:00:00,79.02,87.205
01/17/95,12:00:00,75.294,84.099
01/17/95,13:00:00,71.242,79.878
01/17/95,14:00:00,69.771,78.296
01/17/95,15:00:00,67.124,77.435
01/17/95,16:00:00,65.359,78.24
01/17/95,17:00:00,65.653,80.329
01/17/95,18:00:00,68.431,82.151
01/17/95,19:00:00,71.373,84.395
01/17/95,20:00:00,71.536,88.122
01/17/95,21:00:00,69.052,84.762
01/17/95,22:00:00,68.039,81.897
01/17/95,23:00:00,65.49,76.32
01/18/95,00:00:00,61.307,71.322
01/18/95,01:00:00,51.667,58.009
01/18/95,02:00:00,46.503,52.32
01/18/95,03:00:00,45.523,49.793
01/18/95,04:00:00,45.065,47.689
01/18/95,05:00:00,47.287,50.937
01/18/95,06:00:00,51.046,54.466
01/18/95,07:00:00,64.052,69.431
01/18/95,08:00:00,80.556,89.703
01/18/95,09:00:00,79.804,93.911
01/18/95,10:00:00,78.497,90.96
01/18/95,11:00:00,73.791,86.442
01/18/95,12:00:00,69.15,80.654
01/18/95,13:00:00,67.255,79.864
01/18/95,14:00:00,67.386,77.294
01/18/95,15:00:00,66.536,77.576
01/18/95,16:00:00,66.634,77.548
01/18/95,17:00:00,68.105,79.751
01/18/95,18:00:00,72.059,82.631
01/18/95,19:00:00,74.412,86.202
01/18/95,20:00:00,75.817,87.501
01/18/95,21:00:00,74.15,86.936
01/18/95,22:00:00,69.575,80.923
01/18/95,23:00:00,64.869,76.207
01/19/95,00:00:00,58.693,69.416
01/19/95,01:00:00,49.902,59.209
01/19/95,02:00:00,43.889,50.485
01/19/95,03:00:00,40.392,46.955
01/19/95,04:00:00,42.124,48.593
01/19/95,05:00:00,43.726,50.753
01/19/95,06:00:00,48.66,54.381
01/19/95,07:00:00,62.353,73.355
01/19/95,08:00:00,79.902,88.701
01/19/95,09:00:00,80.883,93.826
01/19/95,10:00:00,79.314,91.737
01/19/95,11:00:00,76.144,87.995
01/19/95,12:00:00,71.372,84.071
01/19/95,13:00:00,69.641,82.602
01/19/95,14:00:00,69.967,81.755
01/19/95,15:00:00,66.863,77.887
01/19/95,16:00:00,68.105,79.454
01/19/95,17:00:00,70,81.515
01/19/95,18:00:00,72.745,82.236
01/19/95,19:00:00,76.111,86.245
01/19/95,20:00:00,76.307,87.191
01/19/95,21:00:00,75.359,86.612
01/19/95,22:00:00,73.464,84.155
01/19/95,23:00:00,69.346,80.33
01/20/95,00:00:00,61.634,72.113
01/20/95,01:00:00,53.562,61.299
01/20/95,02:00:00,45.163,52.052
01/20/95,03:00:00,40.098,44.866
01/20/95,04:00:00,42.157,46.574
01/20/95,05:00:00,42.974,47.788
01/20/95,06:00:00,48.693,55.299
01/20/95,07:00:00,61.83,67.2
01/20/95,08:00:00,77.288,88.136
01/20/95,09:00:00,82.222,93.487
01/20/95,10:00:00,82.059,92.95
01/20/95,11:00:00,79.608,90.621
01/20/95,12:00:00,74.183,86.386
01/20/95,13:00:00,69.216,83.054
01/20/95,14:00:00,67.32,80.132
01/20/95,15:00:00,65.719,78.734
01/20/95,16:00:00,68.203,78.706
01/20/95,17:00:00,70.588,80.57
01/20/95,18:00:00,74.412,82.334
01/20/95,19:00:00,77.288,85.991
01/20/95,20:00:00,77.255,87.063
01/20/95,21:00:00,75.85,85.341
01/20/95,22:00:00,72.81,82.73
01/20/95,23:00:00,68.399,77.11
01/21/95,00:00:00,62.582,72.184
01/21/95,01:00:00,54.51,62.569
01/21/95,02:00:00,48.17,54.96
01/21/95,03:00:00,41.765,46.842
01/21/95,04:00:00,39.542,44.88
01/21/95,05:00:00,43.301,48.932
01/21/95,06:00:00,47.124,51.628
01/21/95,07:00:00,54.15,60.395
01/21/95,08:00:00,56.438,74.414
01/21/95,09:00:00,78.137,87.882
01/21/95,10:00:00,84.51,93.628
01/21/95,11:00:00,84.314,95.181
01/21/95,12:00:00,79.706,90.734
01/21/95,13:00:00,76.242,86.259
01/21/95,14:00:00,73.431,82.476
01/21/95,15:00:00,70.588,79.934
01/21/95,16:00:00,69.15,79.412
01/21/95,17:00:00,72.288,81.049
01/21/95,18:00:00,74.869,84.974
01/21/95,19:00:00,78.399,86.612
01/21/95,20:00:00,76.405,86.936
01/21/95,21:00:00,76.438,86.513
01/21/95,22:00:00,71.699,80.231
01/21/95,23:00:00,68.856,78.734
01/22/95,00:00:00,62.189,71.605
01/22/95,01:00:00,53.856,61.92
01/22/95,02:00:00,47.484,54.438
01/22/95,03:00:00,44.575,50.725
01/22/95,04:00:00,42.778,48.296
01/22/95,05:00:00,40.817,47.153
01/22/95,06:00:00,42.778,47.731
01/22/95,07:00:00,25.572,52.249
01/22/95,08:00:00,52.19,67.511
01/22/95,09:00:00,75,81.727
01/22/95,10:00:00,80.458,90.946
01/22/95,11:00:00,83.105,92.287
01/22/95,12:00:00,80.098,90.042
01/22/95,13:00:00,75.948,87.459
01/22/95,14:00:00,73.693,81.685
01/22/95,15:00:00,70.196,78.621
01/22/95,16:00:00,70.556,78.776
01/22/95,17:00:00,70.163,79.355
01/22/95,18:00:00,73.921,82.362
01/22/95,19:00:00,78.039,85.92
01/22/95,20:00:00,79.117,88.927
01/22/95,21:00:00,79.15,89.11
01/22/95,22:00:00,75.654,84.974
01/22/95,23:00:00,71.046,82.122
01/23/95,00:00:00,63.399,71.972
01/23/95,01:00:00,53.954,60.875
01/23/95,02:00:00,46.438,52.786
01/23/95,03:00:00,44.248,49.849
01/23/95,04:00:00,41.569,45.939
01/23/95,05:00:00,42.157,46.983
01/23/95,06:00:00,48.431,53.478
01/23/95,07:00:00,66.307,69.346
01/23/95,08:00:00,79.412,84.141
01/23/95,09:00:00,84.346,92.753
01/23/95,10:00:00,83.954,92.16
01/23/95,11:00:00,80.556,88.743
01/23/95,12:00:00,75.882,84.932
01/23/95,13:00:00,72.516,80.541
01/23/95,14:00:00,71.144,78.042
01/23/95,15:00:00,69.477,75.078
01/23/95,16:00:00,69.02,75.261
01/23/95,17:00:00,69.641,77.605
01/23/95,18:00:00,73.954,81.459
01/23/95,19:00:00,78.039,85.299
01/23/95,20:00:00,79.837,87.134
01/23/95,21:00:00,79.248,89.407
01/23/95,22:00:00,78.137,86.301
01/23/95,23:00:00,72.451,80.866
01/24/95,00:00:00,59.118,68.118
01/24/95,01:00:00,33.431,58.518
01/24/95,02:00:00,26.601,51.571
01/24/95,03:00:00,48.758,61.864
01/24/95,04:00:00,43.66,48.508
01/24/95,05:00:00,43.268,47.04
01/24/95,06:00:00,49.314,53.478
01/24/95,07:00:00,64.02,69.642
01/24/95,08:00:00,77.386,85.666
01/24/95,09:00:00,81.699,92.809
01/24/95,10:00:00,81.438,91.087
01/24/95,11:00:00,78.824,85.991
01/24/95,12:00:00,75.621,83.238
01/24/95,13:00:00,73.497,80.908
01/24/95,14:00:00,72.091,69.431
01/24/95,15:00:00,68.137,77.195
01/24/95,16:00:00,68.693,75.628
01/24/95,17:00:00,70.131,76.983
01/24/95,18:00:00,72.582,79.115
01/24/95,19:00:00,77.811,83.591
01/24/95,20:00:00,80.425,87.812
01/24/95,21:00:00,79.15,87.685
01/24/95,22:00:00,77.614,85.271
01/24/95,23:00:00,73.039,81.812
01/25/95,00:00:00,67.81,76.63
01/25/95,01:00:00,57.32,65.506
01/25/95,02:00:00,49.379,55.878
01/25/95,03:00:00,44.15,49.708
01/25/95,04:00:00,45.359,49.793
01/25/95,05:00:00,44.379,49.412
01/25/95,06:00:00,47.745,53.492
01/25/95,07:00:00,63.431,67.892
01/25/95,08:00:00,78.889,85.553
01/25/95,09:00:00,81.438,93.176
01/25/95,10:00:00,80.49,86.654
01/25/95,11:00:00,77.876,83.379
01/25/95,12:00:00,75.098,82.716
01/25/95,13:00:00,73.627,80.555
01/25/95,14:00:00,71.961,79.341
01/25/95,15:00:00,70.425,77.704
01/25/95,16:00:00,69.673,77.125
01/25/95,17:00:00,71.83,78.508
01/25/95,18:00:00,74.052,81.05
01/25/95,19:00:00,80.065,86.146
01/25/95,20:00:00,77.647,86.301
01/25/95,21:00:00,78.366,86.245
01/25/95,22:00:00,76.667,83.012
01/25/95,23:00:00,72.81,80.499
01/26/95,00:00:00,66.699,76.278
01/26/95,01:00:00,57.516,66.946
01/26/95,02:00:00,52.549,59.859
01/26/95,03:00:00,47.876,54.043
01/26/95,04:00:00,46.667,52.052
01/26/95,05:00:00,46.569,50.174
01/26/95,06:00:00,50.948,54.607
01/26/95,07:00:00,66.601,70.137
01/26/95,08:00:00,80.098,85.652
01/26/95,09:00:00,83.301,91.609
01/26/95,10:00:00,82.124,89.915
01/26/95,11:00:00,79.281,86.908
01/26/95,12:00:00,76.405,83.887
01/26/95,13:00:00,74.902,81.628
01/26/95,14:00:00,73.889,79.878
01/26/95,15:00:00,72.778,78.508
01/26/95,16:00:00,73.464,81.304
01/26/95,17:00:00,74.902,82.363
01/26/95,18:00:00,76.438,84.381
01/26/95,19:00:00,82.157,87.91
01/26/95,20:00:00,82.909,89.873
01/26/95,21:00:00,81.079,90.677
01/26/95,22:00:00,77.647,85.327
01/26/95,23:00:00,77.516,83.379
01/27/95,00:00:00,71.111,77.83
01/27/95,01:00:00,62.81,70.871
01/27/95,02:00:00,57.974,64.532
01/27/95,03:00:00,52.745,57.755
01/27/95,04:00:00,48.464,53.605
01/27/95,05:00:00,49.543,54.635
01/27/95,06:00:00,54.281,59.901
01/27/95,07:00:00,68.758,74.075
01/27/95,08:00:00,83.66,87.981
01/27/95,09:00:00,83.595,93.077
01/27/95,10:00:00,83.333,92.64
01/27/95,11:00:00,81.438,90.282
01/27/95,12:00:00,78.072,85.497
01/27/95,13:00:00,77.288,84
01/27/95,14:00:00,77.059,84.085
01/27/95,15:00:00,75.523,81.558
01/27/95,16:00:00,75.523,81.233
01/27/95,17:00:00,76.438,82.292
01/27/95,18:00:00,77.647,84.226
01/27/95,19:00:00,78.17,85.144
01/27/95,20:00:00,77.614,86.315
01/27/95,21:00:00,75.653,83.125
01/27/95,22:00:00,72.876,79.962
01/27/95,23:00:00,72.582,78.565
01/28/95,00:00:00,69.804,76.856
01/28/95,01:00:00,63.072,71.435
01/28/95,02:00:00,57.647,63.388
01/28/95,03:00:00,52.843,59.054
01/28/95,04:00:00,49.052,52.814
01/28/95,05:00:00,49.673,53.986
01/28/95,06:00:00,52.386,56.795
01/28/95,07:00:00,58.235,64.391
01/28/95,08:00:00,57.287,71.026
01/28/95,09:00:00,83.856,93.925
01/28/95,10:00:00,87.974,94.758
01/28/95,11:00:00,87.713,96.41
01/28/95,12:00:00,84.836,93.501
01/28/95,13:00:00,82.059,90.621
01/28/95,14:00:00,81.046,88.249
01/28/95,15:00:00,81.242,87.529
01/28/95,16:00:00,82.745,91.736
01/28/95,17:00:00,83.758,92.823
01/28/95,18:00:00,80.556,89.054
01/28/95,19:00:00,81.079,89.026
01/28/95,20:00:00,78.889,88.15
01/28/95,21:00:00,76.601,84.325
01/28/95,22:00:00,73.791,79.694
01/28/95,23:00:00,71.667,78.169
01/29/95,00:00:00,67.647,74.922
01/29/95,01:00:00,59.837,67.228
01/29/95,02:00:00,56.046,62.414
01/29/95,03:00:00,55.752,61.383
01/29/95,04:00:00,53.399,58.56
01/29/95,05:00:00,51.34,56.471
01/29/95,06:00:00,47.974,56.612
01/29/95,07:00:00,31.765,60.071
01/29/95,08:00:00,63.399,70.842
01/29/95,09:00:00,80.033,86.386
01/29/95,10:00:00,85.392,93.84
01/29/95,11:00:00,86.601,95.393
01/29/95,12:00:00,85.359,94.631
01/29/95,13:00:00,82.68,91.821
01/29/95,14:00:00,79.902,89.04
01/29/95,15:00:00,78.203,85.962
01/29/95,16:00:00,77.843,85.384
01/29/95,17:00:00,77.288,84.904
01/29/95,18:00:00,78.987,86.598
01/29/95,19:00:00,81.242,88.969
01/29/95,20:00:00,78.333,88.616
01/29/95,21:00:00,77.059,87.501
01/29/95,22:00:00,74.575,81.685
01/29/95,23:00:00,70.621,78.635
01/30/95,00:00:00,62.222,73.948
01/30/95,01:00:00,54.281,62.259
01/30/95,02:00:00,51.438,57.544
01/30/95,03:00:00,50.948,55.228
01/30/95,04:00:00,48.954,54.706
01/30/95,05:00:00,50.065,55.228
01/30/95,06:00:00,56.274,60.183
01/30/95,07:00:00,66.601,70.617
01/30/95,08:00:00,80.294,87.925
01/30/95,09:00:00,85.392,95.492
01/30/95,10:00:00,85.392,93.769
01/30/95,11:00:00,82.778,91.722
01/30/95,12:00:00,80.131,89.252
01/30/95,13:00:00,78.431,86.838
01/30/95,14:00:00,77.451,85.073
01/30/95,15:00:00,74.216,82.673
01/30/95,16:00:00,76.176,82.843
01/30/95,17:00:00,77.353,84.48
01/30/95,18:00:00,78.333,85.271
01/30/95,19:00:00,81.111,88.814
01/30/95,20:00:00,81.634,90.607
01/30/95,21:00:00,77.516,86.781
01/30/95,22:00:00,75.229,83.139
01/30/95,23:00:00,71.209,79.51
01/31/95,00:00:00,63.758,70.645
01/31/95,01:00:00,55,64.475
01/31/95,02:00:00,48.758,54.551